| time (UTC) | temp F | wind direction | speed MPH | gust MPH | rain 1hr in | rain 24hr in | rain mn in | humidity % | barometer mb |
| 20260504194529 | 71 | 247 | 3.0 | 9.0 | 0.00 | 0.00 | 0.00 | 47 | 1006.1 |
| 20260504193103 | 72 | 224 | 1.0 | 8.0 | 0.00 | 0.00 | 0.00 | 48 | 1006.2 |
| 20260504191538 | 72 | 200 | 3.0 | 10.0 | 0.00 | 0.00 | 0.00 | 48 | 1006.5 |
| 20260504190112 | 72 | 245 | 4.0 | 8.0 | 0.00 | 0.00 | 0.00 | 48 | 1006.5 |
| 20260504184521 | 71 | 223 | 2.0 | 7.0 | 0.00 | 0.00 | 0.00 | 50 | 1006.8 |
| 20260504183050 | 71 | 244 | 2.0 | 8.0 | 0.00 | 0.00 | 0.00 | 52 | 1006.9 |
| 20260504181525 | 70 | 126 | 2.0 | 11.0 | 0.00 | 0.00 | 0.00 | 50 | 1007.1 |
| 20260504180058 | 70 | 247 | 2.0 | 9.0 | 0.00 | 0.00 | 0.00 | 51 | 1007.3 |
| 20260504174524 | 69 | 225 | 3.0 | 6.0 | 0.00 | 0.00 | 0.00 | 52 | 1007.5 |
| 20260504173055 | 69 | 194 | 2.0 | 8.0 | 0.00 | 0.00 | 0.00 | 51 | 1007.6 |
| 20260504171523 | 68 | 167 | 3.0 | 9.0 | 0.00 | 0.00 | 0.00 | 51 | 1007.8 |
| 20260504081547 | 48 | 247 | 0.0 | 1.0 | 0.00 | 0.00 | 0.00 | 64 | 1011.5 |
| 20260504044530 | 39 | 249 | 0.0 | 0.0 | 0.00 | 0.00 | 0.00 | 83 | 1013.3 |
| 20260504043058 | 39 | 249 | 0.0 | 0.0 | 0.00 | 0.00 | 0.00 | 85 | 1013.4 |
| 20260504041524 | 38 | 249 | 0.0 | 0.0 | 0.00 | 0.00 | 0.00 | 83 | 1013.4 |
| 20260504040107 | 39 | 249 | 0.0 | 0.0 | 0.00 | 0.00 | 0.00 | 81 | 1013.3 |
| 20260504034546 | 39 | 249 | 0.0 | 0.0 | 0.00 | 0.00 | 0.00 | 79 | 1013.3 |
| 20260504033129 | 40 | 249 | 0.0 | 0.0 | 0.00 | 0.00 | 0.00 | 77 | 1013.2 |
| 20260504031542 | 41 | 249 | 0.0 | 0.0 | 0.00 | 0.00 | 0.00 | 76 | 1013.3 |
| 20260504030027 | 42 | 249 | 0.0 | 0.0 | 0.00 | 0.00 | 0.00 | 72 | 1013.3 |
| 20260504024545 | 43 | 249 | 0.0 | 0.0 | 0.00 | 0.00 | 0.00 | 70 | 1013.5 |
| 20260504023012 | 44 | 249 | 0.0 | 0.0 | 0.00 | 0.00 | 0.00 | 68 | 1013.6 |
| 20260504021552 | 45 | 249 | 0.0 | 0.0 | 0.00 | 0.00 | 0.00 | 65 | 1013.6 |
| 20260504020020 | 46 | 249 | 0.0 | 0.0 | 0.00 | 0.00 | 0.00 | 63 | 1013.6 |
| 20260504014603 | 48 | 249 | 0.0 | 0.0 | 0.00 | 0.00 | 0.00 | 59 | 1013.6 |
| 20260504013025 | 50 | 249 | 0.0 | 0.0 | 0.00 | 0.00 | 0.00 | 55 | 1013.5 |
| 20260504011559 | 51 | 249 | 0.0 | 1.0 | 0.00 | 0.00 | 0.00 | 52 | 1013.4 |
| 20260504010015 | 52 | 249 | 0.0 | 2.0 | 0.00 | 0.00 | 0.00 | 50 | 1013.4 |
| 20260504004621 | 53 | 249 | 0.0 | 4.0 | 0.00 | 0.00 | 0.00 | 48 | 1013.4 |
| 20260504003027 | 53 | 248 | 2.0 | 5.0 | 0.00 | 0.00 | 0.00 | 48 | 1013.3 |
| 20260504001601 | 54 | 246 | 0.0 | 1.0 | 0.00 | 0.00 | 0.00 | 48 | 1013.4 |
| 20260504000104 | 54 | 263 | 0.0 | 5.0 | 0.00 | 0.00 | 0.00 | 46 | 1013.4 |
| 20260503234537 | 55 | 234 | 1.0 | 6.0 | 0.00 | 0.00 | 0.00 | 45 | 1013.3 |
| 20260503233101 | 55 | 240 | 1.0 | 5.0 | 0.00 | 0.00 | 0.00 | 45 | 1013.3 |
| 20260503231533 | 56 | 305 | 1.0 | 6.0 | 0.00 | 0.00 | 0.00 | 44 | 1013.4 |
| 20260503230111 | 56 | 228 | 1.0 | 9.0 | 0.00 | 0.00 | 0.00 | 43 | 1013.4 |
| 20260503224537 | 57 | 239 | 3.0 | 7.0 | 0.00 | 0.00 | 0.00 | 41 | 1013.4 |
| 20260503223005 | 57 | 219 | 2.0 | 6.0 | 0.00 | 0.00 | 0.00 | 42 | 1013.5 |
| 20260503221551 | 57 | 250 | 2.0 | 7.0 | 0.00 | 0.00 | 0.00 | 41 | 1013.5 |
| 20260503220015 | 58 | 264 | 3.0 | 9.0 | 0.00 | 0.00 | 0.00 | 39 | 1013.6 |
| 20260503214553 | 59 | 239 | 1.0 | 8.0 | 0.00 | 0.00 | 0.00 | 39 | 1013.5 |
| 20260503213018 | 59 | 245 | 2.0 | 9.0 | 0.00 | 0.00 | 0.00 | 39 | 1013.5 |
| 20260503211601 | 58 | 317 | 2.0 | 9.0 | 0.00 | 0.00 | 0.00 | 41 | 1013.5 |
| 20260503210028 | 58 | 205 | 3.0 | 9.0 | 0.00 | 0.00 | 0.00 | 40 | 1013.6 |
| 20260503204611 | 58 | 264 | 2.0 | 11.0 | 0.00 | 0.00 | 0.00 | 41 | 1013.8 |
| 20260503203023 | 57 | 219 | 1.0 | 8.0 | 0.00 | 0.00 | 0.00 | 41 | 1013.9 |
| 20260503201606 | 58 | 239 | 4.0 | 10.0 | 0.00 | 0.00 | 0.00 | 39 | 1014.1 |
| 20260503200028 | 58 | 306 | 5.0 | 10.0 | 0.00 | 0.00 | 0.00 | 41 | 1014.2 |